Showing default

THAICOM 5, 29163

Orbit data source: Space-Track

THAICOM 5, 29163 is a payload satellite owned by Shinawatra (TH) in GEO that was launched on Sat, 27 May 2006 UTC via an ARIANE 5ECA launch vehicle from the French Guiana (FRGUI). Payloads include a variety of satellites, spacecraft, and rockets equipped with specific instruments for various scientific and technological missions. These include communications satellites like Starlink; space stations such as the ISS; scientific satellites like the Hubble; Earth observation satellites from companies like Planet Labs, Umbra, and HawkEye 360; GPS; miniature CubeSats for education and research; and military/defense satellites.

Not visible in the next 10 days
THAICOM 5 details
Identifier
29163, 2006-020B
Orbit
GEO
Last TLE update21 hours ago
Origin
Flag of THShinawatra (TH / THAI)
ManufacturerAlcatel Alenia F
MissionNon-operational Commercial Communications
Bus & MotorSPACEBUS 3000A, S400
Mass2,766 kg wet, 1,220 kg dry
Launch date (UTC)
2006-05-27 (19 years ago)
Launch vehicle
ARIANE 5ECA
Launch site
French Guiana (FRGUI)
Object type
Payload
Rocket body
Debris
Shape & HBRBox + 2 Pan, 26.2 m
Radar Cross Section24.732 m², Large (>1 m²)

Expand to show TLE details & history

TLE from 21 hours ago
0 THAICOM 5
1 29163U 06020B   25035.39466667 -.00000226  00000-0  00000-0 0  9992
2 29163   4.7321  78.8086 0004752 175.1853   6.2915  0.99207693 68311
Epoch: 2025-02-04T09:28Z
Definitive object data (Epoch: 2025-02-04T09:28:19.2Z)
Latitude-0.11604°
Longitude-16.57161°
Altitude36,067.062 km
Speed3.065 km/s
True Right ascension17h 21m 14s
True Declination0° 06' 57"
Sunlit
Object was in daylight at TLE epoch
Visualization TLE readout
Latitude3.04729°
Longitude-57.78511°
Altitude36,070.29 km
Speed3.065 km/s
Apparent Right ascension15h 02m 54s
Apparent Declination-2° 27' 41"
Sunlit
Object is in daylight
Visualization observer readout
Local Sidereal Time08:55:36
Azimuth90.717° ESE
Elevation-2.98°
Doppler factor1
Orbital elements
Apogee altitude36,108.794 km
Perigee altitude36,068.434 km
Semi-major axis42,466.751 km
Eccentricity0.0004752
Inclination4.7321°
RAAN78.8086°
Arg. of periapsis175.1853°
True anomaly6.29747°
Mean anomaly6.2915°
Eccentric anomaly6.29449°
Mean motion0.24801 °/min
BSTARUnknown
Orbital period1451.55 mins
Loading historical data...
29163 neighbors
Authenticating...
Loading maneuver chart data...
Loading historical data...
Loading historical data...
Loading historical data...
Loading historical data...
Loading historical data...
Loading historical data...
Loading historical data...
Other satellites on launch #20 in the year 2006 (2006-05-27 UTC)

THAICOM 5 Visibility forecast

Observer location: undefined°, undefined

THAICOM 5 is not visible in the next 10 days
Span
Click to sort rows by Start time (UTC) header in descending order
Start Az.
Max El. time (UTC)
Max El. Az.
Max El.
End time (UTC)
End Az.
|